ATLAS 5 CENTAUR DEB, 46608

Orbit data source: Space-Track

ATLAS 5 CENTAUR DEB, 46608 is space debris in HEO originally from a launch on Wed, 17 Oct 2018 UTC launched from the Air Force Eastern Test Range (AFETR). Debris objects in space refer to the collection of defunct objects orbiting the Earth. Examples of debris include non-operational satellites, rocket bodies, and fragments generated from explosions, collisions, or faulty payload assembly.

Loading next visibility...
Identifier
46608, 2018-079CG
Orbit
HEO
Country
Flag of USUS
Related business
Flag of USUnited Launch Alliance/Lockheed Martin (US)
Manufacturer
ULA Decatur
Mission
Spacecraft
Bus & Motor
Unknown
Mass
Unknown
Launch date (UTC)
2018-10-17 (8 years ago)
Launch vehicle
Unknown
Launch site
Air Force Eastern Test Range (AFETR)
Object type
Payload
Rocket body
Debris
Shape & HBR
Unknown shape, 1.1 m
Radar Cross Section
Medium (>0.1 m² and <1 m²)

Expand to show TLE details & history
Last TLE update: 6 months ago

TLE from 6 months ago
0 ATLAS 5 CENTAUR DEB
1 46608U 18079CG  25342.19677234 -.00000095  00000-0  00000+0 0  9998
2 46608  13.3340  54.1751 4672123 272.6002  36.6775  1.79347206 26840
Epoch: 2025-12-08T04:43Z
TLE epoch observation values (Epoch: 2025-12-08T04:43:21.130Z)
Latitude
0.00003°
Longitude
-93.92453°
Altitude
15,556.717 km
Speed
4.734 km/s
True Right ascension
03h 36m 27s
True Declination
0° 00' 00"
Sunlit
Object was in daylight at epoch
Visualization orbit readout
Latitude
Unknown
Longitude
Unknown
Altitude
Unknown
Speed
Unknown
Apparent Right ascension
Unknown
Apparent Declination
Unknown
Sunlit
N/A
Visualization observer readout
Local Sidereal Time
20:51:25
Azimuth
Unknown
Elevation
Unknown
Doppler factor
Unknown
Orbital elements
Apogee altitude
35,610.305 km
Perigee altitude
8,869.094 km
Semi-major axis
28,617.836 km
Eccentricity
0.46721
Inclination
13.334°
RAAN
54.1751°
Arg. of periapsis
272.6002°
True anomaly
87.33753°
Mean anomaly
36.6775°
Eccentric anomaly
59.81768°
Mean motion
0.44832 °/min
Orbital period
803 mins
BSTAR
0
Loading maneuver chart data...
Computing Atmospheric mass density...

Documentation

Showing up to 5 results
|